Frenchville, ME

6:02 PM EDT on August 21, 2017 (GMT -0400)
Northern Aroostook Regional

Weather History for KFVE - March, 2014

Change the Weather History Date:

Thursday, March 6, 2014

  Actual Average Record
Temperature  
Mean Temperature 6 °F 20 °F  
Max Temperature 17 °F 28 °F 39 °F (2011)
Min Temperature -5 °F 11 °F -10 °F (2015)
Degree Days  
Heating Degree Days 59    
Month to date heating degree days 384  
Since 1 July heating degree days 7318  
Cooling Degree Days 0    
Month to date cooling degree days 0  
Year to date cooling degree days 0  
Moisture  
Dew Point -17 °F    
Average Humidity 36    
Maximum Humidity 56    
Minimum Humidity 19    
Precipitation  
Precipitation 0.00 in 0.04 in 0.66 in (2011)
Month to date precipitation T 0.20  
Year to date precipitation 2.92 2.77  
Sea Level Pressure  
Sea Level Pressure 30.47 in    
Wind  
Wind Speed 11 mph (WNW)    
Max Wind Speed 23 mph    
Max Gust Speed 27 mph    
Visibility 10 miles    
Events      
T = Trace of Precipitation, MM = Missing Value Source: NWS Daily Summary

Daily Weather History Graph

Daily Weather History Graph

Search for Another Location

Airport or City:

Trip Planner

Search our weather history database for the weather conditions in past years. The results will help you decide how hot, cold, wet, or windy it might be!

Date:

Astronomy

Mar. 06, 2014 Rise Set
Actual Time 6:03 AM EST 5:25 PM EST
Civil Twilight 5:33 AM EST 5:56 PM EST
Nautical Twilight 4:58 AM EST 6:31 PM EST
Astronomical Twilight 4:22 AM EST 7:07 PM EST
Moon 8:46 AM EST (3/6) 11:52 PM EST (3/6)
Length of Visible Light 12h 22m
Length of Day
11h 21m
Waxing Crescent, 32% of the Moon is Illuminated
Mar 6
Waxing Crescent
Mar 8
First Quarter
Mar 16
Full
Mar 23
Last Quarter
Mar 30
New

Hourly Weather History & Observations

Time (EST) Temp. Windchill Dew Point Humidity Pressure Visibility Wind Dir Wind Speed Gust Speed Precip Events Conditions
12:53 AM -2.9 °F -19.8 °F -15.0 °F 56% 30.46 in 10.0 mi NW 10.4 mph - N/A   Clear
1:53 AM -2.9 °F -25.0 °F -15.0 °F 56% 30.46 in 10.0 mi NNW 18.4 mph - N/A   Clear
2:53 AM -2.9 °F -21.6 °F -15.0 °F 56% 30.46 in 10.0 mi NNW 12.7 mph - N/A   Clear
3:53 AM -2.9 °F -21.6 °F -16.1 °F 54% 30.47 in 10.0 mi NW 12.7 mph - N/A   Clear
4:53 AM -2.9 °F -23.8 °F -16.1 °F 54% 30.48 in 10.0 mi NW 16.1 mph 23.0 mph N/A   Clear
5:53 AM -4.0 °F -23.0 °F -16.1 °F 56% 30.51 in 10.0 mi NW 12.7 mph - N/A   Clear
6:53 AM -2.9 °F -19.8 °F -17.0 °F 51% 30.53 in 10.0 mi NNW 10.4 mph - N/A   Clear
7:53 AM -0.0 °F -18.0 °F -17.0 °F 45% 30.55 in 10.0 mi NNW 12.7 mph - N/A   Clear
8:53 AM 3.0 °F -18.8 °F -17.0 °F 39% 30.55 in 10.0 mi NW 21.9 mph 27.6 mph N/A   Clear
9:53 AM 5.0 °F -14.2 °F -18.0 °F 34% 30.54 in 10.0 mi NW 17.3 mph 26.5 mph N/A   Clear
10:53 AM 8.1 °F -8.4 °F -17.0 °F 31% 30.53 in 10.0 mi NW 13.8 mph - N/A   Clear
11:53 AM 10.9 °F -4.1 °F -18.9 °F 25% 30.51 in 10.0 mi WNW 12.7 mph 21.9 mph N/A   Clear
12:53 PM 14.0 °F 0.5 °F -18.0 °F 23% 30.49 in 10.0 mi NW 11.5 mph - N/A   Clear
1:53 PM 15.1 °F 1.1 °F -18.9 °F 21% 30.47 in 10.0 mi NW 12.7 mph - N/A   Clear
2:53 PM 17.1 °F 4.3 °F -18.0 °F 20% 30.47 in 10.0 mi NW 11.5 mph - N/A   Clear
3:53 PM 17.1 °F 5.0 °F -18.9 °F 19% 30.46 in 10.0 mi WNW 10.4 mph - N/A   Clear
4:53 PM 16.0 °F 8.8 °F -17.0 °F 22% 30.45 in 10.0 mi WNW 4.6 mph - N/A   Clear
5:53 PM 12.9 °F 6.9 °F -16.1 °F 26% 30.45 in 10.0 mi NNW 3.5 mph - N/A   Clear
6:53 PM 14.0 °F 3.9 °F -17.0 °F 24% 30.46 in 10.0 mi WNW 6.9 mph - N/A   Clear
7:53 PM 12.9 °F 5.2 °F -17.0 °F 25% 30.45 in 10.0 mi West 4.6 mph - N/A   Clear
8:53 PM 12.0 °F 4.1 °F -17.0 °F 26% 30.43 in 10.0 mi SW 4.6 mph - N/A   Clear
9:53 PM 8.1 °F -2.0 °F -16.1 °F 33% 30.42 in 10.0 mi SSW 5.8 mph - N/A   Clear
10:53 PM 7.0 °F 0.1 °F -15.0 °F 36% 30.41 in 10.0 mi SW 3.5 mph - N/A   Clear
11:53 PM 8.1 °F -2.0 °F -15.0 °F 34% 30.38 in 10.0 mi WSW 5.8 mph - N/A   Clear